Showing default

EUTE 9B, 41310

Orbit data source: Space-Track

EUTE 9B, 41310 is a payload satellite owned by EutelsatSA (FR) in GEO that was launched on Fri, 29 Jan 2016 UTC via a PROTON-M/BRIZ-M launch vehicle from the Tyuratam Missile And Space Complex (TTMTR). Payload-class satellites include a variety of spacecraft equipped with specific instruments for various scientific and technological missions. These include communications satellites like Starlink; space stations such as the ISS; scientific satellites like the Hubble; Earth observation satellites from companies like Planet Labs, Umbra, and HawkEye 360; GPS; miniature CubeSats for education and research; and military/defense satellites.

Not visible in the next 10 days
Identifier
41310, 2016-005A
Orbit
GEO
Country
Flag of FRFR / EUTE
Related business
Manufacturer
Airbus/Toulouse
Mission
Operational Commercial Communications
Bus & Motor
EUROSTAR 3000, R-4D?
Mass
~5,162 kg wet, ~3,000 kg dry
Launch date (UTC)
2016-01-29 (10 years ago)
Launch vehicle
PROTON-M/BRIZ-M
Launch site
Tyuratam Missile And Space Complex (TTMTR)
Object type
Payload
Rocket body
Debris
Shape & HBR
Box + 2 Pan, 19.5 m
Radar Cross Section
46.485 m², Large (>1 m²)

Expand to show TLE details & history
Last TLE update: 2 days ago

TLE from 2 days ago
0 EUTE 9B
1 41310U 16005A   26171.32244802  .00000057  00000-0  00000+0 0  9994
2 41310   0.0887  76.7287 0001691 335.6230 341.2375  1.00272797 38146
Epoch: 2026-06-20T07:44Z
TLE epoch observation values (Epoch: 2026-06-20T07:44:19.508Z)
Latitude
-0.04976°
Longitude
8.97533°
Altitude
35,779.059 km
Speed
3.075 km/s
True Right ascension
02h 14m 22s
True Declination
0° 02' 59"
Sunlit
Object was in daylight at epoch
Visualization orbit readout
Latitude
Unknown
Longitude
Unknown
Altitude
Unknown
Speed
Unknown
Apparent Right ascension
Unknown
Apparent Declination
Unknown
Sunlit
N/A
Visualization observer readout
Local Sidereal Time
21:35:41
Azimuth
Unknown
Elevation
Unknown
Doppler factor
Unknown
Orbital elements
Apogee altitude
35,794.512 km
Perigee altitude
35,780.251 km
Semi-major axis
42,165.519 km
Eccentricity
0.00017
Inclination
0.0887°
RAAN
76.7287°
Arg. of periapsis
335.623°
True anomaly
341.23127°
Mean anomaly
341.2375°
Eccentric anomaly
341.23438°
Mean motion
0.25067 °/min
Orbital period
1,436.14 mins
BSTAR
0
Loading maneuver chart data...
Computing Atmospheric mass density...
Loading historical data...
Loading historical data...
Loading historical data...
Loading historical data...
Loading historical data...
Loading historical data...
Loading historical data...
Other satellites on launch #5 in the year 2016 (2016-01-29 UTC)

Documentation

Showing up to 5 results
|